Weather History for KPKD - November, 2013

Change the Weather History Date:

Monday, November 25, 2013

  Actual Average Record
Temperature  
Mean Temperature 28 °F -  
Max Temperature 34 °F 31 °F 54 °F (1984)
Min Temperature 19 °F 14 °F -19 °F (1977)
Degree Days  
Heating Degree Days 38    
Moisture  
Dew Point 22 °F    
Average Humidity 76    
Maximum Humidity 85    
Minimum Humidity 67    
Precipitation  
Precipitation 0.00 in - - ()
Sea Level Pressure  
Sea Level Pressure 29.95 in    
Wind  
Wind Speed 14 mph (WNW)    
Max Wind Speed 24 mph    
Max Gust Speed 33 mph    
Visibility 10 miles    
Events Snow    
Averages and records for this station are not official NWS values.
T = Trace of Precipitation, MM = Missing Value Source: NWS Daily Summary

Daily Weather History Graph

Daily Weather History Graph

Search for Another Location

Airport or City:

Trip Planner

Search our weather history database for the weather conditions in past years. The results will help you decide how hot, cold, wet, or windy it might be!

Date:

Astronomy

Nov. 25, 2013 Rise Set
Actual Time 7:37 AM CST 4:36 PM CST
Civil Twilight 7:03 AM CST 5:10 PM CST
Nautical Twilight 6:25 AM CST 5:48 PM CST
Astronomical Twilight 5:49 AM CST 6:24 PM CST
Moon No Moon Rise 12:40 PM CST (11/25)
Length of Visible Light 10h 07m
Length of Day
8h 59m
Waning Gibbous, 51% of the Moon is Illuminated
Nov 25
Waning Gibbous
Nov 25
Last Quarter
Dec 2
New
Dec 9
First Quarter
Dec 17
Full

Hourly Weather History & Observations

Time (CST) Temp. Windchill Dew Point Humidity Pressure Visibility Wind Dir Wind Speed Gust Speed Precip Events Conditions
12:53 AM 30.9 °F 21.2 °F 25.0 °F 79% 29.81 in 10.0 mi West 12.7 mph - N/A   Clear
1:46 AM 30.9 °F 22.2 °F 25.0 °F 79% 29.75 in 10.0 mi WNW 10.4 mph - N/A   Mostly Cloudy
1:53 AM 30.9 °F 22.8 °F 25.0 °F 79% 29.81 in 10.0 mi WNW 9.2 mph - N/A   Mostly Cloudy
2:53 AM 32.0 °F 22.5 °F 26.1 °F 79% 29.82 in 10.0 mi WNW 12.7 mph - N/A   Overcast
3:53 AM 32.0 °F 23.0 °F 26.1 °F 79% 29.83 in 10.0 mi WNW 11.5 mph - N/A   Overcast
4:05 AM 32.0 °F 22.5 °F 26.1 °F 79% 29.78 in 10.0 mi WNW 12.7 mph - N/A   Overcast
4:53 AM 30.9 °F 21.7 °F 25.0 °F 79% 29.85 in 10.0 mi WNW 11.5 mph - N/A   Overcast
5:53 AM 30.9 °F 20.2 °F 25.0 °F 79% 29.86 in 10.0 mi WNW 15.0 mph - N/A   Overcast
6:44 AM 30.9 °F 21.2 °F 25.0 °F 79% 29.83 in 10.0 mi WNW 12.7 mph - N/A   Overcast
6:53 AM 30.9 °F 21.2 °F 25.0 °F 79% 29.89 in 10.0 mi WNW 12.7 mph - N/A   Overcast
7:17 AM 30.9 °F 20.7 °F 25.0 °F 79% 29.84 in 10.0 mi WNW 13.8 mph - N/A   Overcast
7:53 AM 30.9 °F 20.2 °F 25.0 °F 79% 29.91 in 10.0 mi WNW 15.0 mph - N/A   Overcast
8:53 AM 30.9 °F 22.2 °F 25.0 °F 79% 29.93 in 10.0 mi West 10.4 mph - N/A   Overcast
9:53 AM 32.0 °F 22.5 °F 25.0 °F 75% 29.94 in 10.0 mi WNW 12.7 mph - N/A   Overcast
10:53 AM 33.1 °F 22.2 °F 24.1 °F 70% 29.95 in 10.0 mi WNW 17.3 mph - N/A   Overcast
11:53 AM 34.0 °F 23.4 °F 24.1 °F 67% 29.95 in 10.0 mi WNW 17.3 mph 23.0 mph N/A   Overcast
12:53 PM 34.0 °F 24.2 °F 25.0 °F 70% 29.96 in 10.0 mi West 15.0 mph - N/A   Overcast
1:49 PM 33.8 °F 22.5 °F 24.8 °F 70% 29.91 in 10.0 mi WNW 19.6 mph 27.6 mph N/A   Overcast
1:53 PM 33.1 °F 22.6 °F 24.1 °F 70% 29.96 in 10.0 mi WNW 16.1 mph 27.6 mph N/A   Overcast
2:21 PM 33.1 °F 22.2 °F 25.0 °F 72% 29.92 in 10.0 mi WNW 17.3 mph 24.2 mph N/A   Overcast
2:53 PM 30.9 °F 17.5 °F 26.1 °F 82% 29.99 in 10.0 mi WNW 24.2 mph 33.4 mph 0.00 in   Overcast
3:53 PM 28.0 °F 15.7 °F 21.9 °F 78% 30.03 in 10.0 mi WNW 17.3 mph 25.3 mph N/A   Overcast
4:21 PM 27.0 °F 12.5 °F 19.0 °F 72% 29.98 in 10.0 mi NW 23.0 mph 31.1 mph N/A   Overcast
4:53 PM 26.1 °F 13.6 °F 19.0 °F 75% 30.06 in 10.0 mi NW 16.1 mph - N/A   Overcast
5:53 PM 25.0 °F 10.6 °F 16.0 °F 69% 30.08 in 10.0 mi NW 20.7 mph 26.5 mph N/A   Overcast
6:53 PM 24.1 °F 9.0 °F 15.1 °F 69% 30.09 in 10.0 mi NW 21.9 mph 26.5 mph N/A   Overcast
7:20 PM 23.0 °F 8.7 °F 14.0 °F 68% 30.03 in 10.0 mi NNW 18.4 mph 29.9 mph N/A   Overcast
7:53 PM 23.0 °F 10.1 °F 14.0 °F 68% 30.10 in 10.0 mi NNW 15.0 mph - N/A   Overcast
8:53 PM 21.9 °F 10.4 °F 16.0 °F 78% 30.10 in 7.0 mi NW 11.5 mph - 0.00 in Snow Light Snow
9:53 PM 21.0 °F 9.9 °F 17.1 °F 85% 30.10 in 5.0 mi NW 10.4 mph - 0.00 in Snow Light Snow
10:53 PM 21.0 °F 9.9 °F 16.0 °F 81% 30.11 in 8.0 mi NW 10.4 mph - 0.00 in Snow Light Snow
11:53 PM 19.9 °F 5.7 °F 16.0 °F 85% 30.12 in 4.0 mi WNW 16.1 mph 23.0 mph 0.00 in Snow Light Snow